Location: ?????
(31.8092°N, 35.2590°E)
Time: 03:47:12
(UTC+00:00)

Cosmos 2360 Rocket - Pass Details

Date: 18 October 2021
Orbit: 832 x 846 km, 71.0° (Epoch: 07 December)

Event Time Altitude Azimuth Distance (km) Brightness Sun altitude
Rises 16:19:51 0° 168° (SSE) 3,364 5.2 -17.0°
Reaches altitude 10° 16:22:38 10° 156° (SSE) 2,436 4.4 -17.6°
Enters shadow 16:25:26 22° 130° (SE) 1,747 3.4 -18.2°
